FWI3450 TNCM-TFFF

Flight info

Callsign FWI3450
Flight time 0h 45m
Altitude 31000
Route MODOR2 ELOPO UB520 ANU UA312 PPR/N0436F230 A312 DOM DOM2X
Aircraft A35K/H-SDE2E3GHIJ3J4J5LM1ORWXY/LB1D1

Departure

Time 2026-04-25 04:33
Airport Princess Juliana International Airport (TNCM)

Arrival

Time 2026-04-25 05:19
Airport Martinique Aimé Césaire International Airport (TFFF)
Time Latitude Longitude Altitude Speed Heading
2026-04-25 04:20 18.04314 -63.11430 35 ft 0 kts 350°
2026-04-25 04:21 18.04313 -63.11430 35 ft 1 kts 350°
2026-04-25 04:21 18.04289 -63.11425 35 ft 4 kts 348°
2026-04-25 04:22 18.04263 -63.11421 33 ft 4 kts
2026-04-25 04:22 18.04241 -63.11426 34 ft 4 kts 31°
2026-04-25 04:22 18.04224 -63.11444 34 ft 4 kts 81°
2026-04-25 04:22 18.04222 -63.11470 34 ft 2 kts 80°
2026-04-25 04:23 18.04222 -63.11475 34 ft 0 kts 79°
2026-04-25 04:26 18.04222 -63.11471 34 ft 2 kts 79°
2026-04-25 04:26 18.04228 -63.11441 34 ft 6 kts 79°
2026-04-25 04:27 18.04236 -63.11383 34 ft 10 kts 85°
2026-04-25 04:27 18.04205 -63.11316 34 ft 11 kts 150°
2026-04-25 04:27 18.04117 -63.11299 34 ft 15 kts 171°
2026-04-25 04:27 18.04047 -63.11231 33 ft 15 kts 84°
2026-04-25 04:28 18.04065 -63.11110 34 ft 18 kts 81°
2026-04-25 04:28 18.04086 -63.10967 34 ft 21 kts 81°
2026-04-25 04:28 18.04110 -63.10799 33 ft 24 kts 81°
2026-04-25 04:28 18.04137 -63.10618 34 ft 26 kts 81°
2026-04-25 04:29 18.04167 -63.10419 34 ft 29 kts 81°
2026-04-25 04:29 18.04196 -63.10203 33 ft 31 kts 83°
2026-04-25 04:29 18.04228 -63.09973 33 ft 32 kts 71°
2026-04-25 04:29 18.04276 -63.09860 33 ft 9 kts 118°
2026-04-25 04:30 18.04241 -63.09863 33 ft 3 kts 234°
2026-04-25 04:30 18.04239 -63.09876 32 ft 0 kts 263°
2026-04-25 04:31 18.04239 -63.09878 33 ft 1 kts 262°
2026-04-25 04:31 18.04239 -63.09879 33 ft 0 kts 261°
2026-04-25 04:31 18.04239 -63.09880 33 ft 0 kts 261°
2026-04-25 04:33 18.04237 -63.09890 33 ft 17 kts 261°
2026-04-25 04:33 18.04155 -63.10447 34 ft 134 kts 261°
2026-04-25 04:33 18.03955 -63.11738 291 ft 208 kts 259°
2026-04-25 04:33 18.03349 -63.13220 1275 ft 235 kts 225°
2026-04-25 04:34 18.01883 -63.14075 2216 ft 249 kts 188°
2026-04-25 04:34 18.00236 -63.13775 3234 ft 239 kts 141°
2026-04-25 04:34 17.99194 -63.12444 4039 ft 250 kts 122°
2026-04-25 04:34 17.98688 -63.10651 4553 ft 267 kts 89°
2026-04-25 04:35 17.98998 -63.08733 5654 ft 265 kts 76°
2026-04-25 04:35 17.99319 -63.06843 6557 ft 269 kts 93°
2026-04-25 04:35 17.98832 -63.04957 7486 ft 270 kts 116°
2026-04-25 04:35 17.97846 -63.03270 8444 ft 275 kts 126°
2026-04-25 04:36 17.96647 -63.01678 9396 ft 280 kts 130°
2026-04-25 04:36 17.95384 -63.00100 10281 ft 286 kts 130°
2026-04-25 04:36 17.94500 -62.98979 10650 ft 300 kts 129°
2026-04-25 04:36 17.93158 -62.97196 11091 ft 322 kts 128°
2026-04-25 04:37 17.91772 -62.95250 11537 ft 341 kts 127°
2026-04-25 04:37 17.89908 -62.92514 12426 ft 354 kts 126°
2026-04-25 04:37 17.88946 -62.91076 12918 ft 359 kts 126°
2026-04-25 04:37 17.87505 -62.88910 13632 ft 366 kts 126°
2026-04-25 04:38 17.86029 -62.86691 14344 ft 372 kts 126°
2026-04-25 04:38 17.84551 -62.84476 15026 ft 378 kts 126°
2026-04-25 04:38 17.83028 -62.82201 15705 ft 384 kts 127°
2026-04-25 04:38 17.81480 -62.79895 16374 ft 390 kts 127°
2026-04-25 04:39 17.79900 -62.77547 17015 ft 395 kts 127°
2026-04-25 04:39 17.78310 -62.75185 17634 ft 400 kts 127°
2026-04-25 04:39 17.76692 -62.72784 18260 ft 405 kts 128°
2026-04-25 04:39 17.75055 -62.70355 18891 ft 410 kts 128°
2026-04-25 04:40 17.73397 -62.67894 19561 ft 414 kts 128°
2026-04-25 04:40 17.71729 -62.65419 20193 ft 418 kts 128°
2026-04-25 04:40 17.70043 -62.62917 20820 ft 422 kts 128°
2026-04-25 04:40 17.68348 -62.60387 21453 ft 426 kts 128°
2026-04-25 04:41 17.66642 -62.57837 22041 ft 430 kts 128°
2026-04-25 04:41 17.64916 -62.55261 22627 ft 433 kts 128°
2026-04-25 04:41 17.63166 -62.52668 23207 ft 437 kts 129°
2026-04-25 04:41 17.61379 -62.50072 23754 ft 441 kts 130°
2026-04-25 04:42 17.59564 -62.47461 24291 ft 444 kts 130°
2026-04-25 04:42 17.57742 -62.44849 24831 ft 448 kts 130°
2026-04-25 04:42 17.55885 -62.42184 25385 ft 453 kts 130°
2026-04-25 04:42 17.54031 -62.39518 25957 ft 457 kts 130°
2026-04-25 04:43 17.52142 -62.36796 26507 ft 462 kts 130°
2026-04-25 04:43 17.50249 -62.34068 27064 ft 466 kts 130°
2026-04-25 04:43 17.48341 -62.31318 27596 ft 470 kts 130°
2026-04-25 04:43 17.46404 -62.28526 28117 ft 473 kts 130°
2026-04-25 04:44 17.44455 -62.25718 28622 ft 478 kts 130°
2026-04-25 04:44 17.42493 -62.22890 29131 ft 481 kts 130°
2026-04-25 04:44 17.40522 -62.20050 29615 ft 485 kts 130°
2026-04-25 04:44 17.38527 -62.17180 30076 ft 489 kts 130°
2026-04-25 04:45 17.36539 -62.14319 30538 ft 493 kts 130°
2026-04-25 04:45 17.34520 -62.11416 30895 ft 497 kts 130°
2026-04-25 04:45 17.32509 -62.08522 30989 ft 487 kts 130°
2026-04-25 04:45 17.30554 -62.05697 30992 ft 472 kts 130°
2026-04-25 04:46 17.28628 -62.02918 30989 ft 466 kts 131°
2026-04-25 04:46 17.24813 -61.97448 30990 ft 464 kts 131°
2026-04-25 04:47 17.21000 -61.91998 30990 ft 464 kts 131°
2026-04-25 04:47 17.17210 -61.86604 30990 ft 464 kts 131°
2026-04-25 04:48 17.12970 -61.81591 30990 ft 454 kts 146°
2026-04-25 04:48 17.07533 -61.78454 30993 ft 439 kts 166°
2026-04-25 04:49 17.01759 -61.76581 30991 ft 437 kts 169°
2026-04-25 04:49 16.95899 -61.74864 30989 ft 437 kts 169°
2026-04-25 04:50 16.90043 -61.73134 30990 ft 437 kts 168°
2026-04-25 04:50 16.84184 -61.71371 30990 ft 438 kts 168°
2026-04-25 04:51 16.78341 -61.69602 30990 ft 438 kts 168°
2026-04-25 04:51 16.72479 -61.67827 30980 ft 438 kts 168°
2026-04-25 04:52 16.66651 -61.66065 30980 ft 438 kts 168°
2026-04-25 04:52 16.60840 -61.64311 30980 ft 438 kts 168°
2026-04-25 04:53 16.54993 -61.62547 30971 ft 438 kts 168°
2026-04-25 04:53 16.49140 -61.60781 30971 ft 438 kts 168°
2026-04-25 04:54 16.43270 -61.59009 30971 ft 438 kts 168°
2026-04-25 04:54 16.37412 -61.57247 30971 ft 438 kts 168°
2026-04-25 04:55 16.31554 -61.55486 30962 ft 438 kts 168°
2026-04-25 04:55 16.25690 -61.53725 30962 ft 438 kts 168°
2026-04-25 04:56 16.19881 -61.51754 30961 ft 440 kts 166°
2026-04-25 04:56 16.14074 -61.49743 30962 ft 440 kts 166°
2026-04-25 04:57 16.08269 -61.47734 30962 ft 439 kts 166°
2026-04-25 04:57 16.02468 -61.45741 30962 ft 439 kts 166°
2026-04-25 04:58 15.96702 -61.43763 30962 ft 439 kts 166°
2026-04-25 04:58 15.93816 -61.42773 30725 ft 433 kts 166°
2026-04-25 04:58 15.90945 -61.41790 29849 ft 437 kts 166°
2026-04-25 04:58 15.88024 -61.40793 28756 ft 447 kts 166°
2026-04-25 04:59 15.85047 -61.39777 27701 ft 454 kts 165°
2026-04-25 04:59 15.82022 -61.38743 26657 ft 461 kts 165°
2026-04-25 04:59 15.78975 -61.37702 25724 ft 463 kts 165°
2026-04-25 04:59 15.75914 -61.36655 24996 ft 460 kts 165°
2026-04-25 05:00 15.73402 -61.35799 24515 ft 457 kts 165°
2026-04-25 05:00 15.70436 -61.34790 23943 ft 451 kts 165°
2026-04-25 05:00 15.67482 -61.33784 23386 ft 444 kts 165°
2026-04-25 05:00 15.64570 -61.32793 22824 ft 437 kts 164°
2026-04-25 05:01 15.61708 -61.31819 22268 ft 430 kts 164°
2026-04-25 05:01 15.58888 -61.30857 21719 ft 424 kts 164°
2026-04-25 05:01 15.56096 -61.29955 21154 ft 416 kts 168°
2026-04-25 05:01 15.53258 -61.29571 20582 ft 407 kts 180°
2026-04-25 05:02 15.50441 -61.29569 20019 ft 401 kts 182°
2026-04-25 05:02 15.47665 -61.29612 19482 ft 395 kts 182°
2026-04-25 05:02 15.44938 -61.29653 18953 ft 390 kts 182°
2026-04-25 05:02 15.42243 -61.29687 18429 ft 384 kts 182°
2026-04-25 05:03 15.39592 -61.29717 17910 ft 379 kts 182°
2026-04-25 05:03 15.37024 -61.29745 17426 ft 374 kts 182°
2026-04-25 05:03 15.34387 -61.29781 16902 ft 370 kts 182°
2026-04-25 05:03 15.31826 -61.29810 16393 ft 366 kts 182°
2026-04-25 05:04 15.29283 -61.29835 15884 ft 364 kts 181°
2026-04-25 05:04 15.26760 -61.29860 15384 ft 362 kts 181°
2026-04-25 05:04 15.24256 -61.29886 14886 ft 360 kts 181°
2026-04-25 05:04 15.21772 -61.29910 14388 ft 357 kts 181°
2026-04-25 05:05 15.19320 -61.29935 13897 ft 354 kts 181°
2026-04-25 05:05 15.16846 -61.29960 13394 ft 351 kts 181°
2026-04-25 05:05 15.14402 -61.29985 12903 ft 349 kts 181°
2026-04-25 05:05 15.11984 -61.30010 12400 ft 346 kts 181°
2026-04-25 05:06 15.09586 -61.30035 11920 ft 344 kts 181°
2026-04-25 05:06 15.07248 -61.30059 11435 ft 341 kts 180°
2026-04-25 05:06 15.04841 -61.30085 11064 ft 333 kts 180°
2026-04-25 05:06 15.02581 -61.30109 10907 ft 318 kts 180°
2026-04-25 05:07 15.00425 -61.30131 10779 ft 303 kts 180°
2026-04-25 05:07 14.98355 -61.30153 10639 ft 289 kts 180°
2026-04-25 05:07 14.96781 -61.30170 10530 ft 279 kts 180°
2026-04-25 05:07 14.94824 -61.30190 10391 ft 274 kts 180°
2026-04-25 05:08 14.92909 -61.30209 10115 ft 274 kts 180°
2026-04-25 05:08 14.91004 -61.30229 9814 ft 277 kts 180°
2026-04-25 05:08 14.89026 -61.30248 9673 ft 290 kts 180°
2026-04-25 05:08 14.87013 -61.30268 9408 ft 287 kts 180°
2026-04-25 05:09 14.85006 -61.30291 8864 ft 289 kts 179°
2026-04-25 05:09 14.83000 -61.30250 8398 ft 287 kts 175°
2026-04-25 05:09 14.81014 -61.30083 8012 ft 285 kts 173°
2026-04-25 05:09 14.79047 -61.29897 7664 ft 283 kts 173°
2026-04-25 05:10 14.77088 -61.29714 7322 ft 282 kts 173°
2026-04-25 05:10 14.75143 -61.29535 6977 ft 280 kts 173°
2026-04-25 05:10 14.73208 -61.29357 6632 ft 278 kts 173°
2026-04-25 05:10 14.71279 -61.29181 6294 ft 277 kts 174°
2026-04-25 05:11 14.69397 -61.29014 5960 ft 275 kts 173°
2026-04-25 05:11 14.67494 -61.28847 5620 ft 273 kts 174°
2026-04-25 05:11 14.65598 -61.28680 5282 ft 272 kts 173°
2026-04-25 05:12 14.61848 -61.28350 4592 ft 269 kts 173°
2026-04-25 05:12 14.60004 -61.28185 4343 ft 261 kts 173°
2026-04-25 05:12 14.58238 -61.28025 4195 ft 248 kts 173°
2026-04-25 05:12 14.56629 -61.27613 4043 ft 231 kts 151°
2026-04-25 05:13 14.55490 -61.26518 3885 ft 226 kts 120°
2026-04-25 05:13 14.55034 -61.24983 3643 ft 225 kts 94°
2026-04-25 05:13 14.55147 -61.23382 3387 ft 225 kts 81°
2026-04-25 05:13 14.55446 -61.21806 3144 ft 222 kts 81°
2026-04-25 05:14 14.55711 -61.20290 3075 ft 206 kts 82°
2026-04-25 05:14 14.55907 -61.19126 3013 ft 194 kts 82°
2026-04-25 05:14 14.56126 -61.17794 2940 ft 177 kts 82°
2026-04-25 05:15 14.56514 -61.15469 2551 ft 150 kts 82°
2026-04-25 05:15 14.56685 -61.14464 2424 ft 137 kts 82°
2026-04-25 05:15 14.56849 -61.13507 2256 ft 135 kts 82°
2026-04-25 05:15 14.57012 -61.12551 2078 ft 135 kts 83°
2026-04-25 05:16 14.57175 -61.11596 1902 ft 135 kts 83°
2026-04-25 05:16 14.57336 -61.10644 1724 ft 135 kts 82°
2026-04-25 05:16 14.57500 -61.09693 1535 ft 134 kts 82°
2026-04-25 05:16 14.57661 -61.08753 1368 ft 134 kts 83°
2026-04-25 05:17 14.57821 -61.07808 1192 ft 133 kts 83°
2026-04-25 05:17 14.57983 -61.06857 1013 ft 133 kts 84°
2026-04-25 05:17 14.58141 -61.05922 820 ft 132 kts 81°
2026-04-25 05:17 14.58317 -61.04983 651 ft 134 kts 81°
2026-04-25 05:18 14.58487 -61.04043 481 ft 133 kts 82°
2026-04-25 05:18 14.58649 -61.03097 280 ft 133 kts 83°
2026-04-25 05:18 14.58797 -61.02159 115 ft 133 kts 82°
2026-04-25 05:18 14.58901 -61.01524 32 ft 134 kts 82°
2026-04-25 05:19 14.59083 -61.00442 15 ft 88 kts 80°
2026-04-25 05:19 14.59164 -60.99968 17 ft 50 kts 82°
2026-04-25 05:19 14.59204 -60.99734 19 ft 42 kts 78°
2026-04-25 05:19 14.59218 -60.99674 20 ft 0 kts 65°
2026-04-25 05:20 14.59221 -60.99672 22 ft 1 kts 47°
2026-04-25 05:20 14.59234 -60.99666 20 ft 4 kts 25°
2026-04-25 05:20 14.59335 -60.99672 19 ft 27 kts 348°
2026-04-25 05:20 14.59414 -60.99704 20 ft 0 kts 295°
2026-04-25 05:21 14.59400 -60.99793 19 ft 24 kts 267°
2026-04-25 05:21 14.59386 -60.99964 18 ft 20 kts 297°
2026-04-25 05:21 14.59408 -60.99980 18 ft 10 kts 340°
2026-04-25 05:21 14.59427 -60.99979 18 ft 3 kts 10°
2026-04-25 05:22 14.59437 -60.99977 18 ft 0 kts 10°